{"data":{"norad_id":57854,"intl_designator":"2023-141Q","name":"STARLINK-30412","alt_names":[],"object_type":"PAYLOAD","status":"ACTIVE","operator":null,"country":"US","launch_date":"2023-09-12","launch_site_code":"AFWTR","launch_vehicle":null,"mission":null,"orbit_class":"UNKNOWN","rcs_meters":null,"size_class":null,"mass_kg":null,"dimensions":null,"purposes":["comms"],"wikipedia_slug":null,"has_3d_model":false,"image_url":null,"decayed_at":null,"tle_current":{"epoch":"2026-09-20T21:59:51.593568Z","epoch_age_seconds":98812,"freshness":"FRESH","line1":"1 57854U 23141Q   26263.91656937 -.00002285  00000+0 -56583-4 0  9994","line2":"2 57854  53.1586  95.5056 0000839  75.5977 284.5119 15.34372569170248","mean_motion":15.34372569,"eccentricity":8.39e-5,"inclination_deg":53.1586,"raan_deg":95.5056,"arg_perigee_deg":75.5977,"mean_anomaly_deg":284.5119,"bstar":-5.6583e-5,"rev_number":17024,"period_min":93.84943586019,"perigee_km":462.21081879789,"apogee_km":463.35872547125,"semimajor_km":6840.9217721346,"source":"CELESTRAK","updated_at":"2026-09-21T09:00:33.713974Z"}}}